INTELSAT 19 (IS-19)

Last updated on Tue Jul 01 2025 00:02:45 GMT+0000 (Coordinated Universal Time)

1 38356U 12030A 25181.57150811 -.00000057 00000+0 00000+0 0 9997 2 38356 0.0171 30.2351 0002945 74.3574 186.0228 1.00272055 46920
UTC large
Height (km)
Speed (km/s)
/
Latitude / Longitude
Inclination (degrees)
Orbital Period (minutes)
Azimuth
Elevation
Range (km)
Doppler Factor

Next 0 passes for location: London (51.5072 / 0.1276)

Sorry there are no passes over London.